Regional Weather Roundup
Issued by NWS

Home | Current Version | Previous Version | Text Only | Print | Product List | Glossary On
Versions: 1 2 3 4 5 6 7 8 9 10 11 12 13 14 15 16 17 18 19 20 21 22 23 24 25 26 27 28 29 30 31 32 33 34 35 36 37 38 39 40 41 42 43 44 45 46 47 48 49 50
000
ASCA42 TJSJ 310811
RWRPR
PUERTO RICO/U.S. VIRGIN ISLANDS HOURLY WEATHER ROUNDUP
NATIONAL WEATHER SERVICE SAN JUAN PR
400 AM AST FRI OCT 31 2014

PRZ001-004-310900-
PUERTO RICO

CITY           SKY/WX    TMP DP  RH WIND       PRES   REMARKS
SAN JUAN LMM   PTCLDY    79  75  89 CALM      29.81S
PONCE          LGT RAIN  77  73  88 NE6       29.79F
CEIBA          PTCLDY   N/A N/A N/A S3        29.84S
$$

PRZ006-007-310900-
U.S. VIRGIN ISLANDS

CITY           SKY/WX    TMP DP  RH WIND       PRES   REMARKS
CHRISTIANSTED  LGT RAIN  75  73  94 N5          N/A  FOG
$$

HOURLY WEATHER ROUNDUP FOR THE NEWS MEDIA

CITY           SKY/WX    TMP DP  RH WIND       PRES   REMARKS
MIAMI          CLEAR     73  69  87 SW3       29.84F
ORLANDO        PTCLDY    70  67  90 N5        29.84F
NEW YORK       MOCLDY    46  37  71 N7        30.01F
NEWARK         PTCLDY    42  36  79 N8        30.01F
CHICAGO        CLOUDY    44  33  65 NW14G29   30.03R
HARTFORD       CLOUDY    40  37  89 CALM      29.98S
BOSTON         CLOUDY    47  38  71 N7        30.01S
DALLAS         CLEAR     57  48  72 N8        30.18S
PHILADELPHIA   CLEAR     42  33  70 N5        30.02F



USA.gov is the U.S. government's official web portal to all federal, state and local government web resources and services.